Satellite: NO-44
Catalog number: 26931
Epoch time:      10067.67039343
Element set:    0404
Inclination:      067.0509 deg
RA of node:       102.9492 deg
Eccentricity:    0.0006589
Arg of perigee:   263.6511 deg
Mean anomaly:     096.3844 deg
Mean motion:   14.29586903 rev/day
Decay rate:       2.19e-06 rev/day^2
Epoch rev:           44038
Checksum:              314

Satellite: SO-50
Catalog number: 27607
Epoch time:      10067.69938348
Element set:    0121
Inclination:      064.5586 deg
RA of node:       301.7319 deg
Eccentricity:    0.0037268
Arg of perigee:   123.7537 deg
Mean anomaly:     236.7113 deg
Mean motion:   14.71507607 rev/day
Decay rate:        2.1e-07 rev/day^2
Epoch rev:           38759
Checksum:              314

Satellite: CO-55
Catalog number: 27844
Epoch time:      10067.66557678
Element set:    0796
Inclination:      098.7140 deg
RA of node:       078.0773 deg
Eccentricity:    0.0010899
Arg of perigee:   099.7279 deg
Mean anomaly:     260.5126 deg
Mean motion:   14.20689200 rev/day
Decay rate:        6.5e-07 rev/day^2
Epoch rev:           34681
Checksum:              350

Satellite: CO-57
Catalog number: 27848
Epoch time:      10067.68055389
Element set:    0749
Inclination:      098.7163 deg
RA of node:       077.1670 deg
Eccentricity:    0.0010415
Arg of perigee:   102.6765 deg
Mean anomaly:     257.5560 deg
Mean motion:   14.20484109 rev/day
Decay rate:        3.9e-07 rev/day^2
Epoch rev:           34677
Checksum:              332

Satellite: AO-51
Catalog number: 28375
Epoch time:      10067.72092843
Element set:    0622
Inclination:      098.0581 deg
RA of node:       066.9587 deg
Eccentricity:    0.0085152
Arg of perigee:   042.3470 deg
Mean anomaly:     318.4246 deg
Mean motion:   14.40672663 rev/day
Decay rate:        3.9e-07 rev/day^2
Epoch rev:           29904
Checksum:              317

Satellite: GENESAT1
Catalog number: 29655
Epoch time:      10066.15679461
Element set:     967
Inclination:      040.0191 deg
RA of node:       326.1036 deg
Eccentricity:    0.0007624
Arg of perigee:   298.2580 deg
Mean anomaly:     061.7467 deg
Mean motion:   15.76371109 rev/day
Decay rate:     5.2242e-04 rev/day^2
Epoch rev:           18380
Checksum:              304

Satellite: CP3
Catalog number: 31129
Epoch time:      10065.55497851
Element set:     521
Inclination:      097.9533 deg
RA of node:       110.5578 deg
Eccentricity:    0.0102033
Arg of perigee:   191.5974 deg
Mean anomaly:     168.2885 deg
Mean motion:   14.52217789 rev/day
Decay rate:       1.50e-06 rev/day^2
Epoch rev:           15296
Checksum:              313

Satellite: CO-65
Catalog number: 32785
Epoch time:      10065.91782283
Element set:     621
Inclination:      097.9074 deg
RA of node:       132.2098 deg
Eccentricity:    0.0013933
Arg of perigee:   257.2285 deg
Mean anomaly:     102.7366 deg
Mean motion:   14.81597077 rev/day
Decay rate:       1.02e-06 rev/day^2
Epoch rev:           10034
Checksum:              303

Satellite: KKS-1
Catalog number: 33493
Epoch time:      10066.09591588
Element set:     271
Inclination:      098.0728 deg
RA of node:       184.7996 deg
Eccentricity:    0.0021177
Arg of perigee:   110.4005 deg
Mean anomaly:     249.9483 deg
Mean motion:   14.80880931 rev/day
Decay rate:       5.37e-06 rev/day^2
Epoch rev:            6037
Checksum:              320

Satellite: SOHLA-1
Catalog number: 33496
Epoch time:      10067.72543768
Element set:    0045
Inclination:      098.0468 deg
RA of node:       178.1582 deg
Eccentricity:    0.0007002
Arg of perigee:   153.9205 deg
Mean anomaly:     206.2391 deg
Mean motion:   14.69474964 rev/day
Decay rate:       1.70e-06 rev/day^2
Epoch rev:           06012
Checksum:              296

/EX
SB KEPS @ AMSAT  $ORB10070.W
Orbital Elements  10070.WEATHER

HR AMSAT ORBITAL ELEMENTS FOR WEATHER SATELLITES
FROM WA5QGD FORT WORTH,TX March 11, 2010
Send Subscribe/unsubscribe to KEPS at http://www.amsat.org/mailman/listinfo/kep
BID: ORB10070.W
TO ALL RADIO AMATEURS BT

Satellite: NOAA-10
Catalog number: 16969
Epoch time:      10065.32130922
Element set:     981
Inclination:      098.6689 deg
RA of node:       095.2051 deg
Eccentricity:    0.0012802
Arg of perigee:   148.4205 deg
Mean anomaly:     211.7758 deg
Mean motion:   14.27408810 rev/day
Decay rate:        7.7e-07 rev/day^2
Epoch rev:           22090
Checksum:              293

Satellite: NOAA-11
Catalog number: 19531
Epoch time:      10065.35027120
Element set:     996
Inclination:      098.7685 deg
RA of node:       156.1267 deg
Eccentricity:    0.0012321
Arg of perigee:   080.8334 deg
Mean anomaly:     279.4224 deg
Mean motion:   14.14917051 rev/day
Decay rate:       -7.0e-08 rev/day^2
Epoch rev:           10659
Checksum:              287

Satellite: NOAA-12
Catalog number: 21263
Epoch time:      10065.46116431
Element set:     480
Inclination:      098.7697 deg
RA of node:       078.6164 deg
Eccentricity:    0.0013293
Arg of perigee:   103.9078 deg
Mean anomaly:     256.3580 deg
Mean motion:   14.25619878 rev/day
Decay rate:        4.6e-07 rev/day^2
Epoch rev:           97776
Checksum:              328

